Tracking 25656 objects as of 21-May-2022
HD Live streaming from Space Station
objects crossing your sky now

COSMOS 1867 COOLANT

Track COSMOS 1867 COOLANT now!
10-day predictions


NORAD ID: 39658
Int'l Code: 1987-060V
Perigee: 778.9 km
Apogee: 804.4 km
Inclination: 65.0 °
Period: 100.5 minutes
Semi major axis: 7162 km
RCS: Unknown
Launch date: July 10, 1987
Source: Commonwealth of Independent States (former USSR) (CIS)
Launch site: TYURATAM MISSILE AND SPACE COMPLEX (TTMTR)

Note: This is SATELLITE DEBRIS
aabbcc
Your satellite tracking list
Your tracking list is empty




NASA's NSSDC Master Catalog

Two Line Element Set (TLE):
1 39658U 87060V   22140.49975554  .00000462  00000-0  20826-3 0  9992
2 39658  65.0111 226.6564 0017777 256.7828 103.1274 14.32153802423427
Source of the keplerian elements: AFSPC